Wind_Speed
6 6 8 8 8 8 8 9 9 7 5 3 3 5 6 7 8 8 6 5 10 8 7 1 2 3 3 3 3 4 9 5 10 10 11 4 4 3 1 4 5 4 9 10 10
9 10 9 8 8 9 10 11 11 11 10 8 6 4 6 10 11 9 8 6 8 9 8 5 4 4 5 6 9 4 3 7 12 8 3 6 8 5 3 4 3 6 7 12 9
8 8 8 8 9 10 10 9 10 11 11 10 8 7 7 9 11 12 9 8 10 10 11 7 8 6 5 3 5 4 3 6 10 7 9 5 5 4 0 3 5 5 7 10 9
7 6 6 6 6 8 9 10 8 9 10 10 10 10 10 12 10 11 10 11 12 12 12 11 10 6 4 0 5 6 3 5 7 10 13 8 17 6 5 9 11 9 7 7 8
4 3 3 3 4 7 9 9 9 9 10 11 11 12 12 12 11 11 10 12 13 14 14 15 12 5 3 3 6 3 10 5 4 10 14 15 13 10 5 1 6 12 9 5 7
3 4 4 4 5 8 9 9 10 11 12 13 14 14 14 13 12 13 13 13 15 16 17 17 12 10 5 1 5 4 8 2 6 7 5 7 10 7 7 8 3 5 7 5 9
4 4 5 6 7 8 9 10 11 13 15 16 16 16 17 14 13 14 16 16 16 17 19 14 13 12 7 2 6 4 5 3 9 9 6 8 9 5 10 9 6 4 7 6 6
2 5 6 6 7 8 10 11 13 16 18 19 18 18 19 17 14 14 15 18 17 17 17 15 14 11 8 6 3 6 9 3 6 7 2 5 8 8 3 8 9 2 5 8 8
6 6 6 5 7 9 11 12 15 18 20 20 20 20 19 18 16 15 15 16 17 17 17 17 16 14 11 9 10 7 10 5 6 5 3 4 9 5 2 6 7 5 3 9 7
11 11 10 9 8 8 10 12 16 19 21 21 20 20 20 17 16 15 16 17 18 17 16 19 20 17 14 12 14 15 12 10 4 8 6 2 5 7 6 8 5 0 6 7 5
14 14 14 14 12 9 9 12 16 18 22 21 21 19 19 17 15 15 15 15 17 17 15 17 19 14 13 16 16 20 16 14 7 6 8 3 2 5 3 5 4 3 1 6 7
16 17 16 16 15 12 10 11 14 18 22 22 19 16 17 16 16 16 14 14 16 14 13 14 14 15 20 19 16 17 16 13 8 12 9 10 7 3 2 3 2 2 3 3 6
19 19 18 18 17 15 12 12 15 18 21 21 20 19 16 15 14 13 9 12 14 12 15 17 20 22 23 21 20 20 14 14 14 11 12 6 5 8 7 8 5 5 3 5 3
20 20 20 19 18 16 14 14 15 18 19 21 18 16 13 13 12 8 9 11 12 10 13 15 18 20 23 22 22 18 19 17 15 17 19 13 8 7 5 6 6 10 8 5 7
19 20 20 19 18 16 17 16 16 16 16 19 14 13 11 7 6 5 7 7 7 6 9 12 14 15 16 20 23 20 18 17 16 12 19 19 18 17 15 11 14 13 12 11 11
22 22 22 21 19 18 20 19 19 17 18 16 14 10 8 4 4 6 6 6 9 10 11 11 10 11 12 20 20 21 20 18 18 19 15 15 18 21 21 19 18 14 14 15 15
29 28 29 28 23 23 23 23 22 21 19 17 15 10 1 5 4 6 9 9 15 16 21 22 19 17 13 15 22 26 24 19 18 18 15 19 24 15 18 21 19 20 17 14 14
37 35 36 35 29 28 27 26 24 24 21 16 13 12 4 5 4 3 5 6 9 12 13 13 12 10 12 10 15 27 27 22 21 16 13 18 23 18 18 18 20 21 18 15 15
30 32 37 38 34 31 29 26 22 24 22 18 14 11 9 8 8 3 4 8 8 13 14 15 6 9 9 7 12 16 29 28 24 20 22 20 18 17 19 21 20 21 23 20 16
30 33 29 27 30 31 32 25 22 26 23 23 17 16 13 14 10 8 5 9 10 12 12 11 6 8 8 5 6 11 16 20 19 19 19 19 21 19 18 18 20 20 23 22 19
28 30 27 29 30 27 23 23 25 27 27 27 23 17 22 18 16 12 12 14 13 10 9 11 10 12 9 6 6 9 13 16 16 18 17 16 15 19 20 19 19 16 19 26 23
30 32 31 30 29 27 24 24 30 31 32 32 28 25 27 25 22 19 14 16 16 8 7 8 8 13 14 13 11 12 11 14 15 17 18 19 18 20 22 25 23 22 19 25 29
31 34 30 29 28 28 29 31 37 39 40 38 36 32 29 33 26 23 22 19 20 16 16 12 13 13 17 19 18 15 15 16 15 15 20 24 22 18 23 25 24 31 28 24 29
32 34 36 31 30 31 30 28 35 41 43 42 35 35 34 34 32 29 28 24 24 23 19 17 15 15 18 21 22 22 22 17 18 17 17 17 20 21 19 16 16 20 27 28 28
35 34 38 40 35 32 32 30 33 43 47 47 40 39 39 37 37 35 35 31 30 28 27 25 24 19 17 21 23 24 26 21 21 21 20 22 21 16 14 13 14 12 20 24 26
39 38 38 41 44 37 33 35 36 40 46 50 44 42 42 37 38 39 38 34 33 31 29 25 25 24 26 26 24 23 24 25 26 24 21 21 21 15 12 12 13 13 16 17 23
41 40 39 39 41 42 38 36 41 41 44 52 48 46 42 40 40 33 30 33 35 34 33 26 19 14 15 18 22 25 24 23 25 26 24 24 18 17 14 11 11 12 11 9 8
Wind_Direction
43 66 74 69 60 52 45 45 39 30 18 345 276 263 257 246 242 238 250 250 244 250 258 288 102 116 144 216 55 27 22 19 281 199 168 150 222 336 66 119 59 100 105 85 81
70 78 77 78 74 70 64 55 48 41 32 18 2 305 266 255 248 249 242 249 250 249 248 244 247 183 201 117 105 77 48 25 51 162 91 300 252 285 360 122 46 123 66 86 81
84 82 83 80 72 68 56 50 41 36 27 13 353 329 298 275 260 253 250 244 250 250 246 242 244 236 238 143 71 86 39 32 27 19 322 314 136 129 124 180 100 97 79 93 98
92 85 80 79 61 36 32 26 22 15 13 7 349 326 309 297 277 270 250 237 244 247 249 242 244 258 234 30 73 43 27 36 46 12 324 224 176 127 136 118 93 78 57 67 81
71 51 52 52 22 15 7 7 5 360 353 346 339 332 318 303 286 265 253 242 238 244 245 243 249 269 292 118 175 21 77 49 64 40 40 128 158 130 103 48 168 53 52 36 97
38 23 6 352 349 348 352 353 353 351 347 342 334 327 319 309 282 265 252 243 239 242 246 250 268 267 243 180 213 91 79 92 81 61 50 60 80 118 354 12 257 29 61 78 117
26 10 358 346 340 336 338 343 342 340 339 334 328 322 315 306 286 270 250 245 244 247 254 261 261 258 265 238 319 168 68 66 61 31 25 53 50 50 334 326 160 128 83 107 117
321 322 320 330 339 343 341 337 335 335 333 329 322 316 311 303 287 273 259 248 248 243 245 252 250 246 240 222 216 204 162 173 79 72 65 57 69 37 339 66 97 164 79 104 96
278 287 301 305 321 328 334 334 333 331 328 325 319 313 308 299 288 271 257 247 245 246 239 231 231 234 217 208 193 224 215 166 155 155 208 91 93 78 143 358 110 99 338 169 100
281 275 274 275 280 301 323 332 334 333 329 322 318 313 307 297 288 272 260 246 245 245 232 224 225 235 225 220 204 215 196 169 88 186 152 186 86 97 70 111 132 99 145 160 58
279 276 275 277 278 277 307 328 334 334 332 323 322 311 303 295 285 271 256 245 236 237 231 226 233 235 206 223 222 213 221 221 200 164 168 142 122 102 71 119 138 32 294 184 177
280 277 275 276 278 275 291 320 325 332 330 328 324 315 313 301 279 264 260 253 237 232 229 214 213 197 215 219 221 218 217 236 184 199 224 267 248 262 292 327 7 330 24 290 180
282 280 281 280 281 281 286 304 316 326 328 328 322 314 307 293 280 257 261 248 233 212 210 204 205 202 208 219 219 231 231 230 205 214 219 208 210 232 245 254 274 288 249 253 176
280 280 281 282 283 284 288 299 310 319 325 326 322 311 306 287 273 262 258 241 221 212 220 209 208 211 214 219 228 233 230 225 206 209 217 219 234 270 272 256 243 268 264 252 238
281 282 282 281 282 286 286 291 297 307 307 323 319 308 286 264 263 236 227 216 199 169 220 221 202 207 220 222 231 240 235 213 220 220 224 230 232 242 250 243 252 241 247 264 233
278 280 280 279 281 282 284 287 290 296 302 309 319 290 315 301 269 229 143 167 173 157 177 168 170 192 209 220 233 242 242 238 224 239 238 259 250 225 234 230 234 245 248 283 261
277 276 277 276 278 277 280 282 282 284 295 300 314 299 331 298 234 199 110 116 146 152 152 153 157 160 167 200 221 240 246 237 246 249 252 250 256 226 220 218 239 241 239 255 262
273 272 271 271 272 271 272 273 275 277 281 288 303 291 235 184 195 139 136 146 179 178 185 184 188 181 187 212 221 220 230 247 258 256 265 255 251 245 237 239 241 247 243 256 268
281 273 269 273 268 264 263 266 267 265 272 275 283 271 266 203 199 160 177 209 230 227 209 207 174 210 237 206 203 218 222 230 247 249 256 245 245 254 249 256 253 250 243 248 259
278 275 273 276 270 264 259 252 251 256 261 260 260 265 258 265 237 230 221 217 206 213 230 217 207 235 224 189 197 212 221 228 244 252 260 258 252 257 265 267 267 271 256 237 255
278 274 272 268 268 267 265 248 243 245 250 249 252 254 252 251 250 232 238 245 233 201 227 253 246 234 252 223 221 220 228 238 252 261 278 294 284 273 273 272 261 272 273 245 250
276 275 273 269 266 264 254 236 233 234 238 239 242 241 240 240 241 242 235 242 250 213 209 256 233 252 259 274 273 247 236 241 263 265 265 274 284 274 263 263 261 260 280 259 250
281 278 271 271 266 258 250 238 229 229 232 233 235 240 240 250 231 242 242 237 248 254 256 255 266 256 250 264 273 262 260 257 278 265 274 277 276 298 283 271 275 270 286 286 274
280 279 279 271 265 260 254 246 234 232 238 243 241 239 240 243 236 234 243 244 244 252 264 266 263 265 272 272 270 265 264 268 271 268 283 279 282 304 306 275 276 291 284 286 274
283 278 275 276 269 262 254 244 236 231 231 238 238 234 236 236 226 229 240 245 247 247 254 264 264 270 279 279 263 260 265 268 280 285 284 278 287 294 294 283 289 279 293 295 273
284 280 272 270 271 265 251 241 235 232 231 228 231 234 233 237 239 231 237 246 259 260 258 255 262 264 271 273 273 265 265 265 265 277 291 296 293 293 291 308 299 290 292 297 297
284 280 274 266 262 263 254 239 232 226 221 223 226 230 234 241 241 226 237 242 247 254 256 260 258 254 261 266 269 270 272 270 270 275 277 276 290 283 285 318 293 273 265 297 313
Height
5886 5885 5884 5884 5883 5882 5881 5880 5878 5877 5876 5875 5874 5874 5874 5873 5873 5873 5873 5873 5872 5871 5872 5874 5876 5876 5876 5876 5874 5874 5874 5871 5869 5869 5872 5875 5876 5880 5880 5880 5879 5879 5878 5878 5877
5887 5886 5886 5885 5885 5884 5883 5881 5880 5878 5877 5876 5874 5873 5872 5871 5871 5872 5873 5872 5872 5871 5871 5873 5874 5875 5875 5877 5876 5875 5874 5873 5869 5873 5873 5874 5875 5877 5880 5879 5880 5880 5878 5876 5879
5888 5888 5887 5887 5886 5885 5884 5883 5881 5880 5879 5877 5875 5873 5871 5870 5870 5870 5871 5871 5871 5870 5870 5871 5872 5874 5875 5876 5876 5876 5876 5874 5873 5871 5871 5872 5875 5876 5880 5880 5880 5880 5879 5877 5879
5890 5889 5889 5888 5887 5886 5885 5884 5882 5881 5879 5877 5875 5873 5871 5870 5870 5869 5869 5869 5870 5869 5869 5869 5870 5872 5875 5877 5877 5877 5875 5875 5874 5872 5868 5866 5873 5876 5878 5880 5880 5881 5882 5880 5879
5891 5890 5889 5889 5887 5886 5885 5883 5882 5880 5879 5876 5875 5872 5870 5869 5868 5866 5867 5867 5868 5867 5867 5866 5868 5872 5873 5876 5876 5875 5872 5875 5875 5871 5870 5870 5873 5876 5878 5878 5880 5879 5881 5881 5880
5891 5890 5889 5888 5888 5886 5885 5883 5881 5879 5877 5875 5873 5871 5869 5868 5866 5864 5864 5865 5865 5864 5865 5865 5869 5870 5873 5875 5875 5875 5874 5875 5874 5873 5873 5872 5874 5874 5875 5877 5877 5879 5881 5882 5882
5891 5890 5889 5888 5887 5885 5884 5882 5880 5879 5876 5874 5871 5869 5866 5866 5863 5862 5862 5862 5862 5863 5863 5866 5867 5869 5872 5873 5873 5874 5875 5876 5876 5875 5875 5873 5875 5876 5876 5873 5876 5879 5880 5883 5883
5890 5890 5888 5887 5886 5885 5883 5881 5879 5877 5875 5871 5869 5866 5864 5862 5860 5859 5858 5859 5860 5860 5861 5863 5864 5866 5870 5872 5873 5876 5877 5877 5875 5877 5876 5875 5874 5876 5877 5875 5874 5877 5880 5880 5880
5889 5888 5887 5886 5885 5883 5882 5880 5878 5875 5872 5869 5866 5863 5861 5859 5857 5856 5856 5856 5856 5857 5859 5860 5861 5864 5868 5870 5872 5873 5874 5875 5876 5876 5877 5877 5875 5877 5876 5875 5875 5877 5878 5878 5880
5887 5886 5885 5884 5882 5881 5880 5878 5876 5874 5870 5867 5863 5861 5857 5855 5853 5853 5852 5852 5853 5854 5856 5857 5859 5861 5865 5867 5870 5870 5872 5874 5874 5876 5876 5877 5876 5877 5877 5875 5876 5878 5878 5879 5880
5884 5883 5882 5880 5879 5878 5877 5876 5875 5872 5868 5864 5861 5856 5853 5852 5851 5849 5849 5849 5849 5851 5853 5855 5857 5861 5863 5864 5867 5869 5870 5871 5874 5874 5874 5875 5876 5876 5877 5876 5877 5877 5878 5878 5882
5880 5879 5878 5877 5876 5875 5874 5874 5870 5869 5864 5860 5857 5854 5851 5849 5848 5846 5846 5847 5846 5848 5851 5854 5856 5859 5858 5860 5863 5866 5869 5871 5871 5872 5873 5874 5875 5876 5876 5875 5874 5875 5876 5879 5881
5877 5875 5874 5873 5872 5872 5871 5870 5867 5865 5862 5858 5855 5852 5849 5847 5845 5843 5844 5844 5844 5846 5847 5850 5852 5853 5856 5858 5861 5862 5866 5869 5871 5871 5872 5872 5873 5874 5875 5876 5875 5875 5875 5877 5878
5872 5871 5870 5869 5870 5868 5867 5866 5864 5861 5858 5856 5853 5849 5846 5843 5843 5841 5841 5843 5843 5844 5846 5848 5850 5852 5854 5857 5858 5861 5864 5866 5868 5870 5871 5871 5872 5873 5874 5874 5873 5872 5873 5874 5876
5868 5866 5865 5864 5865 5864 5863 5861 5860 5859 5857 5855 5851 5848 5844 5844 5841 5840 5840 5840 5841 5843 5846 5847 5849 5851 5854 5857 5856 5859 5861 5864 5864 5867 5868 5868 5872 5871 5872 5873 5872 5872 5870 5871 5874
5864 5862 5860 5860 5860 5859 5857 5856 5856 5857 5853 5852 5849 5846 5842 5840 5839 5839 5839 5839 5840 5841 5843 5846 5848 5850 5852 5854 5855 5857 5857 5859 5862 5863 5865 5863 5865 5867 5868 5870 5870 5870 5873 5872 5872
5857 5856 5853 5853 5856 5854 5852 5851 5851 5849 5851 5849 5846 5843 5842 5839 5839 5838 5838 5840 5840 5841 5843 5845 5847 5848 5851 5852 5853 5853 5853 5856 5858 5858 5861 5860 5860 5865 5865 5866 5866 5866 5867 5869 5870
5848 5848 5845 5844 5848 5847 5846 5845 5844 5843 5844 5844 5843 5841 5840 5840 5838 5837 5837 5840 5841 5842 5843 5845 5847 5848 5849 5850 5849 5850 5852 5853 5853 5856 5858 5857 5857 5860 5861 5862 5862 5861 5863 5863 5866
5837 5837 5835 5837 5838 5838 5839 5839 5838 5836 5838 5839 5839 5837 5836 5837 5838 5838 5837 5838 5841 5842 5844 5844 5845 5846 5845 5846 5846 5847 5848 5851 5851 5854 5854 5855 5855 5855 5856 5857 5858 5858 5858 5860 5861
5829 5828 5829 5829 5828 5829 5830 5834 5832 5830 5832 5832 5834 5834 5833 5834 5835 5836 5836 5837 5839 5840 5840 5841 5842 5843 5844 5844 5845 5845 5847 5849 5849 5850 5851 5852 5853 5853 5854 5854 5855 5855 5854 5856 5857
5821 5819 5820 5819 5820 5821 5824 5827 5826 5824 5826 5827 5828 5829 5830 5829 5830 5831 5834 5835 5835 5838 5837 5837 5839 5842 5842 5843 5843 5844 5844 5846 5848 5848 5848 5848 5850 5850 5850 5849 5848 5848 5849 5850 5851
5811 5810 5810 5811 5812 5813 5817 5818 5817 5816 5818 5820 5822 5822 5823 5823 5825 5827 5829 5831 5832 5834 5835 5835 5836 5837 5838 5839 5840 5840 5842 5843 5843 5844 5844 5844 5845 5843 5842 5842 5843 5843 5843 5845 5846
5803 5799 5801 5802 5802 5802 5804 5807 5806 5805 5806 5810 5813 5816 5818 5820 5820 5822 5824 5826 5827 5829 5831 5834 5833 5834 5835 5837 5836 5838 5839 5839 5839 5840 5839 5839 5839 5839 5838 5838 5839 5838 5839 5840 5840
5793 5790 5789 5791 5792 5792 5795 5799 5800 5799 5798 5801 5809 5811 5813 5813 5814 5817 5819 5822 5823 5825 5826 5829 5830 5831 5833 5833 5832 5832 5833 5836 5836 5835 5835 5834 5833 5835 5833 5833 5835 5834 5832 5832 5833
5781 5781 5778 5777 5780 5782 5784 5788 5790 5789 5790 5792 5799 5803 5804 5807 5809 5811 5813 5816 5817 5820 5822 5823 5824 5826 5827 5826 5826 5828 5828 5831 5831 5831 5831 5830 5829 5829 5830 5830 5831 5829 5827 5826 5828
5769 5769 5767 5766 5765 5769 5772 5775 5777 5780 5785 5785 5790 5794 5797 5801 5804 5805 5808 5810 5812 5814 5816 5818 5819 5821 5822 5821 5821 5823 5824 5826 5826 5826 5827 5826 5824 5826 5825 5826 5826 5824 5823 5823 5824
5754 5754 5754 5754 5753 5754 5758 5762 5765 5767 5774 5777 5780 5784 5788 5794 5797 5799 5801 5804 5806 5808 5809 5812 5815 5817 5816 5816 5816 5817 5819 5821 5821 5822 5823 5823 5821 5821 5821 5822 5820 5822 5822 5819 5816